RH
37 34 36 34 38 41 43 52 47 44 45 45 55 53 41 35 34 34 30 41 44 20 21 38 38 36 30 25 31 34 35 42 48 51 55 59 65 70 73 71 66 63 58 50 51 53 53 54 52 50 50 47 46 45 43 43 44 44 45 46 46 44 42 40 39 41 41 41 43 45 49 52 53 52 57 66 74 74 71 70 70 68 67 64 61 62
52 35 39 45 43 44 51 68 63 52 54 50 45 38 37 39 36 31 29 51 52 18 26 48 37 36 42 44 49 43 32 35 45 51 56 60 64 69 70 69 66 60 55 55 58 59 58 60 57 55 55 51 47 47 45 43 43 44 44 44 44 42 39 36 35 38 42 42 39 39 43 48 50 51 52 58 65 67 68 70 69 67 65 64 65 66
49 33 40 48 56 61 67 78 66 55 59 56 44 33 40 47 42 39 42 61 58 25 33 47 32 38 56 60 60 51 36 34 43 46 50 55 59 64 66 68 67 60 58 61 64 65 64 64 61 58 59 54 48 46 45 44 42 42 43 44 44 41 38 36 34 38 43 42 36 33 39 45 44 43 47 51 56 60 66 68 63 60 63 66 68 72
33 39 50 56 62 57 59 69 57 48 56 59 48 34 42 48 39 42 48 59 59 37 35 40 33 44 60 61 55 52 52 50 47 47 50 53 54 57 59 62 65 61 60 61 61 66 71 69 66 64 62 58 54 50 47 46 43 40 41 44 44 40 38 36 36 41 43 43 40 36 40 42 33 34 44 50 54 60 62 61 59 61 64 66 66 69
25 40 56 63 61 43 40 55 50 39 45 60 58 38 41 47 36 40 50 60 63 52 47 40 37 55 64 55 47 49 55 49 43 44 46 52 55 53 53 56 62 61 58 58 57 63 73 74 70 67 64 61 59 54 49 47 44 38 38 44 45 40 38 37 38 42 43 44 46 44 46 43 33 37 45 47 55 64 61 59 63 63 60 63 65 67
26 38 46 45 52 49 39 50 56 48 45 58 63 49 47 49 40 42 55 64 62 53 50 37 35 69 78 55 47 55 52 42 40 40 38 45 51 53 55 56 61 63 59 57 54 56 66 72 72 69 66 64 62 57 51 47 43 35 33 40 43 40 39 38 39 43 45 46 45 42 44 40 34 38 40 37 47 58 59 61 63 55 53 60 64 66
33 42 46 41 55 60 45 50 63 57 47 48 56 58 60 57 49 48 47 48 51 46 49 49 42 61 71 53 51 58 50 42 41 39 39 42 45 49 54 54 57 62 61 59 56 54 60 70 74 71 67 65 63 59 53 47 42 32 26 30 37 40 40 40 43 48 51 49 43 36 34 32 27 28 29 31 41 50 57 61 58 52 55 61 62 63
36 35 42 52 65 58 46 53 62 57 48 48 56 61 62 55 51 58 46 39 53 48 52 73 56 43 56 57 55 52 41 38 38 37 40 42 41 43 46 49 53 56 58 59 57 54 57 67 73 69 66 64 63 60 54 47 41 28 19 21 30 39 41 42 45 48 52 50 41 34 32 30 26 23 23 28 38 45 55 60 57 53 58 63 62 61
38 21 23 43 52 46 50 63 61 50 42 49 61 62 61 56 55 64 54 47 57 43 46 75 53 34 60 67 55 45 32 34 39 37 38 38 37 39 39 41 45 49 53 55 55 54 54 61 66 64 64 65 64 61 54 47 39 25 16 19 29 39 43 44 46 48 51 51 42 34 33 32 30 27 22 24 32 39 49 55 52 50 55 59 61 61
32 26 30 36 34 40 59 70 61 44 37 47 58 56 54 62 66 67 62 54 49 40 49 70 48 32 61 70 51 35 27 34 42 39 38 37 35 36 37 37 39 42 48 51 53 53 51 55 60 62 64 65 65 62 56 49 40 26 19 23 31 39 43 44 46 48 50 53 48 38 34 32 31 30 26 23 28 35 42 44 43 46 48 49 50 54
34 39 48 38 30 46 57 59 55 45 41 43 50 47 39 55 65 68 77 57 37 47 60 68 57 35 49 69 55 35 33 41 44 39 38 37 36 38 40 40 39 40 43 49 52 53 51 51 56 61 63 65 65 63 58 52 43 29 22 26 32 38 43 45 47 50 50 52 52 43 36 32 30 31 29 25 25 30 33 33 36 43 44 42 42 44
39 28 40 40 36 42 36 34 40 42 47 44 46 46 36 48 55 56 72 52 37 62 65 66 66 40 42 61 50 41 46 49 47 42 40 39 40 44 46 45 42 42 43 47 53 57 58 59 61 65 65 65 66 63 58 54 46 35 27 28 35 40 44 46 48 53 53 52 53 48 39 33 29 30 32 29 25 25 24 24 29 39 43 43 43 43
42 31 39 34 32 34 25 31 32 31 46 42 41 47 37 43 51 55 67 55 53 66 55 61 62 39 46 55 44 46 48 47 51 47 44 46 47 49 51 50 48 48 47 49 58 62 62 67 71 70 69 68 67 63 60 56 48 40 34 32 36 40 43 47 51 55 55 51 51 50 41 34 30 28 32 33 29 26 25 23 24 31 37 40 44 45
43 48 44 23 24 32 27 34 33 30 38 29 32 42 39 45 52 60 66 56 57 59 52 64 59 44 53 51 44 48 44 48 55 48 47 52 53 50 46 48 54 56 56 55 60 64 64 69 71 71 70 69 68 65 62 59 51 44 40 37 38 41 43 49 52 56 56 48 45 46 41 35 31 28 32 36 35 31 29 28 26 25 27 30 35 40
39 42 43 26 25 28 23 33 42 43 37 30 37 38 37 50 50 50 55 47 49 55 53 51 47 54 55 38 42 52 48 54 54 44 47 50 50 43 33 39 48 57 66 63 59 63 68 69 67 68 70 68 68 68 65 63 56 49 44 41 42 44 46 50 51 56 57 48 41 42 39 36 32 29 32 37 38 37 34 32 32 29 28 28 29 35
33 36 47 38 28 24 20 27 36 35 30 36 43 32 31 46 47 46 53 56 53 50 51 47 48 67 61 36 49 61 55 55 50 41 40 41 41 35 30 35 37 46 64 70 66 66 69 69 66 66 68 67 67 67 67 67 63 57 50 44 43 45 47 49 49 53 57 50 42 39 38 38 35 30 33 39 42 42 40 38 37 36 35 34 32 35
34 43 52 38 27 25 22 24 25 22 29 38 34 31 36 42 52 53 48 63 66 46 52 57 46 56 56 42 50 57 50 49 49 43 39 41 39 33 34 37 35 37 48 62 70 71 72 70 65 66 67 66 67 67 67 67 66 64 60 54 52 52 51 49 48 51 56 54 48 44 41 42 41 35 33 37 41 44 45 43 41 40 40 40 38 38
38 46 53 36 22 26 28 27 27 24 31 35 31 39 40 34 55 60 44 62 69 52 65 68 45 44 52 51 51 50 45 43 46 43 38 41 38 34 38 37 37 40 38 45 55 63 73 72 64 63 64 65 66 66 66 66 65 64 63 61 58 58 55 51 49 49 51 52 50 48 47 47 48 44 38 35 36 41 44 43 43 42 43 44 43 42
40 43 57 48 29 33 38 28 30 36 35 34 33 37 38 41 58 57 48 62 60 52 73 76 59 53 51 53 51 45 44 40 41 43 40 41 42 41 42 37 37 42 41 42 43 48 64 70 67 64 61 62 64 64 66 66 63 63 65 65 63 63 61 59 60 58 53 49 47 48 49 50 50 50 46 40 36 39 42 42 42 43 44 46 46 46
47 39 49 53 35 35 41 34 39 50 44 41 40 37 44 59 65 52 48 60 54 56 77 72 57 52 54 62 56 47 54 49 40 44 43 43 45 45 46 43 41 42 43 46 44 44 51 57 61 63 61 61 60 61 64 63 64 65 66 68 68 67 68 67 67 66 61 57 54 54 53 53 54 53 51 47 41 40 41 42 43 43 45 47 48 48
50 36 47 63 48 37 42 40 46 52 44 43 44 41 43 45 47 44 42 50 52 62 81 73 56 56 66 75 62 50 62 60 47 45 42 41 44 45 47 46 44 45 46 47 48 48 48 47 50 56 61 62 61 61 62 61 63 66 67 69 69 68 69 70 69 67 67 67 66 64 61 58 58 57 56 53 50 47 44 44 45 45 47 49 49 50
47 42 56 66 52 45 50 45 46 48 47 49 44 39 44 43 44 45 45 56 57 55 69 69 60 62 68 75 71 62 66 65 52 44 40 39 41 42 46 45 45 48 48 50 51 50 51 50 48 51 56 59 61 64 65 66 66 66 66 67 67 68 68 68 68 67 70 72 69 67 65 63 63 61 60 58 56 56 52 48 48 48 49 51 51 52
61 60 56 53 49 50 50 45 44 43 43 48 44 43 49 51 51 48 52 67 61 52 64 63 62 73 73 76 79 69 70 73 61 51 43 39 42 44 44 46 49 51 51 53 54 54 54 52 51 53 53 54 56 56 58 64 69 71 72 70 68 70 71 68 66 67 71 75 74 70 68 68 67 65 64 62 59 61 59 54 51 50 52 54 53 53
62 58 46 52 65 59 44 41 45 45 42 37 38 45 46 46 55 61 67 70 57 57 69 61 64 79 78 82 82 66 66 68 58 55 48 40 46 48 45 47 53 55 55 55 55 57 57 55 56 58 58 58 56 53 51 51 55 64 74 79 78 73 72 72 71 72 75 73 73 76 75 73 71 69 68 65 63 62 62 60 56 54 56 56 54 55
47 60 56 55 66 61 50 52 50 49 50 41 38 45 46 51 59 60 64 61 50 61 70 62 70 78 71 77 76 63 62 54 43 52 55 44 45 49 48 53 59 60 59 59 59 59 60 61 63 64 64 62 58 55 53 48 46 49 58 73 85 85 82 80 76 78 78 71 68 76 81 78 75 73 70 68 66 64 64 63 60 59 60 58 56 58
39 62 61 53 64 66 60 63 63 58 52 46 44 41 40 48 48 43 50 53 56 71 72 64 69 67 60 65 61 58 63 48 36 50 58 50 48 52 55 58 65 67 64 62 62 61 62 66 68 67 65 62 57 54 52 50 48 45 42 48 62 75 84 88 86 83 81 76 73 77 82 81 79 77 73 69 69 67 66 66 64 62 62 59 58 60
51 57 60 60 67 63 53 55 62 60 47 39 42 41 41 50 53 51 52 51 61 73 68 64 62 49 46 54 53 56 59 45 40 51 58 58 59 62 66 68 71 70 65 65 64 64 67 70 72 70 64 60 57 54 52 49 47 47 44 39 41 48 58 73 87 91 86 82 81 82 84 84 84 82 78 75 73 71 69 68 66 64 62 61 61 61
58 52 61 65 60 55 50 48 52 55 46 39 44 46 47 54 56 52 49 52 58 56 51 63 66 47 42 49 48 50 52 47 50 57 58 59 61 66 72 75 74 71 68 69 69 71 73 73 75 74 65 60 58 54 53 51 48 47 44 40 40 40 40 51 70 85 91 90 87 87 88 87 88 87 84 83 79 76 76 73 70 67 64 63 63 62
57 52 60 60 58 62 58 54 56 58 53 49 50 48 48 55 55 46 50 62 58 44 44 61 66 52 49 55 52 47 47 43 43 52 58 58 63 73 76 74 73 74 73 72 73 76 76 75 78 75 66 62 60 56 56 54 52 51 46 39 38 38 39 47 55 65 79 90 92 91 90 88 89 90 88 85 82 81 81 78 73 70 67 65 64 63
56 60 67 58 55 62 61 63 64 59 58 55 52 53 52 56 59 50 53 64 58 47 47 56 63 59 55 58 52 45 49 50 52 64 68 64 71 81 78 72 72 74 74 73 73 76 77 79 80 75 68 66 63 62 61 58 57 57 54 49 43 38 40 49 53 56 64 75 82 86 90 91 91 91 89 84 81 82 82 78 74 72 69 67 64 63
50 62 75 62 54 63 63 63 61 58 62 56 51 59 59 58 63 59 57 64 62 57 54 56 64 64 59 56 49 48 61 63 60 67 68 68 79 84 78 74 74 73 73 74 75 76 79 82 81 77 74 70 67 66 65 63 63 62 59 56 52 48 48 51 54 56 61 66 68 75 87 94 94 93 90 86 83 83 84 81 76 72 69 67 66 65
51 63 74 62 58 66 60 54 56 56 59 57 53 59 59 57 63 61 58 63 61 54 51 54 58 61 66 64 54 61 76 69 63 70 71 72 79 78 74 71 70 72 73 74 76 78 79 81 82 80 77 72 69 68 66 65 66 65 62 60 59 59 60 61 60 59 60 62 63 68 79 90 95 94 92 90 87 85 85 83 76 72 71 70 68 68
56 56 63 64 63 69 62 56 62 61 60 66 67 60 54 53 56 55 56 61 58 48 48 52 51 59 77 73 54 64 80 72 69 77 73 70 74 73 70 68 67 72 75 75 77 79 78 79 80 77 74 71 69 67 66 67 68 67 66 67 69 70 71 72 71 68 63 62 65 68 72 83 94 95 92 92 89 87 86 82 77 75 73 71 70 71
68 55 59 64 61 72 72 60 64 70 66 72 77 67 55 49 50 51 50 51 55 55 56 60 56 62 82 80 63 69 80 73 71 77 75 75 77 72 66 66 69 74 78 80 79 78 80 79 75 72 70 68 66 63 64 66 68 70 74 77 79 81 81 81 79 75 71 67 68 70 71 78 90 94 94 93 90 88 86 81 78 77 73 72 74 75
66 61 65 66 63 74 72 59 70 78 64 59 71 73 65 55 51 53 52 56 67 69 62 60 62 69 82 85 80 84 89 83 79 83 85 84 81 72 63 63 68 73 76 78 78 78 78 74 72 72 69 65 63 62 62 63 65 70 78 82 84 85 85 86 84 82 79 73 70 71 74 78 86 92 94 92 90 88 85 81 79 77 75 75 76 75
61 65 68 68 69 73 70 71 83 80 60 54 65 75 78 68 57 52 52 60 72 75 68 64 71 81 85 86 88 90 91 86 77 76 82 86 85 77 62 56 64 73 75 75 75 76 72 67 69 70 67 64 63 63 62 62 63 70 78 83 86 85 85 87 88 86 82 79 74 71 74 79 86 92 94 92 90 88 84 81 79 78 77 77 76 74
62 67 65 63 67 74 81 88 83 67 62 65 67 75 83 78 69 60 54 58 67 75 80 73 71 79 83 85 91 91 84 76 65 60 66 76 83 82 71 65 69 74 73 69 68 67 63 63 66 66 64 66 65 63 63 63 66 74 82 86 85 84 87 90 89 85 81 80 77 72 74 80 87 92 92 90 89 86 83 81 80 79 78 75 73 70
60 63 63 62 68 74 78 86 83 76 81 82 76 79 83 85 87 74 60 59 60 66 79 72 63 74 82 82 88 84 71 64 61 59 58 61 71 77 74 73 70 66 65 65 64 64 62 62 63 61 63 69 69 64 62 66 73 81 89 91 85 83 88 91 86 81 79 78 77 73 74 81 89 92 91 89 88 85 83 81 79 77 75 71 67 61
68 72 70 64 72 78 75 82 91 86 84 85 82 80 80 89 94 78 67 71 62 61 75 69 58 68 76 77 83 75 64 67 70 62 53 53 60 65 67 71 69 64 64 65 66 67 65 64 63 61 64 71 70 65 64 70 78 86 93 94 87 86 90 88 81 76 75 76 76 75 77 85 92 93 90 88 87 85 83 80 76 71 66 60 56 52
77 84 80 70 76 84 80 86 90 78 74 81 81 80 85 89 84 75 82 88 71 63 72 65 55 62 68 74 85 78 70 73 67 54 53 61 66 68 70 75 75 73 72 68 66 68 66 66 67 66 67 71 69 65 67 74 83 91 93 91 90 91 89 80 73 72 73 75 77 79 84 91 93 92 88 85 83 80 76 72 65 60 54 50 48 46
78 78 78 78 85 88 83 85 85 76 75 79 79 85 87 76 71 82 94 88 70 66 70 63 60 66 66 71 82 78 69 67 61 59 69 77 78 77 75 75 75 75 74 71 67 68 68 68 69 70 71 70 67 65 68 77 89 95 92 91 94 92 82 73 72 75 77 79 83 88 93 94 91 88 83 77 73 68 63 56 50 47 45 44 45 45
84 79 77 80 84 88 90 90 86 79 77 79 82 84 75 63 71 84 81 69 63 65 65 61 62 63 61 67 76 73 66 66 69 74 79 80 81 83 80 79 79 76 73 72 70 69 71 73 73 76 76 71 67 69 73 81 92 96 95 97 95 85 74 70 73 80 85 87 89 93 93 88 83 78 73 67 61 56 51 46 42 40 40 41 43 44
76 75 81 82 77 81 89 92 89 81 73 74 74 67 60 61 66 62 55 58 64 63 60 61 62 61 61 66 70 71 72 74 77 78 78 79 83 85 82 81 83 82 80 78 75 72 74 79 81 82 80 74 72 74 77 84 94 98 99 99 90 78 73 72 77 87 92 91 90 88 82 75 71 65 62 59 52 45 43 42 40 40 41 42 43 44
64 67 81 84 76 79 90 94 92 81 68 66 64 55 52 55 53 48 51 60 62 60 60 59 59 63 67 70 72 76 79 79 77 75 75 77 79 83 84 83 82 83 82 80 76 73 76 83 86 84 82 80 79 78 81 89 97 100 97 92 83 77 78 80 85 92 92 87 85 79 72 67 62 55 51 46 40 36 38 41 41 42 42 42 41 43
62 64 74 76 70 71 77 77 73 68 67 72 76 70 61 52 47 52 63 66 63 63 64 60 57 62 69 72 76 79 78 76 74 73 74 76 79 83 84 83 82 83 82 79 77 73 75 82 87 87 87 85 81 81 87 92 93 93 90 86 84 85 87 88 90 88 84 83 81 73 66 60 52 44 39 36 34 35 38 42 43 44 45 45 43 43
69 67 68 71 71 69 68 63 57 58 62 66 70 70 63 53 48 54 65 71 69 65 64 63 63 66 68 72 75 76 74 73 74 75 76 79 83 84 84 84 84 83 82 82 77 72 75 84 88 92 93 87 80 84 91 89 86 88 89 88 89 90 89 87 85 82 79 78 73 65 58 52 44 38 35 35 36 37 38 40 42 42 44 46 45 44
75 67 63 70 74 75 76 70 59 57 59 58 57 58 55 52 53 57 64 68 65 61 62 65 68 72 75 77 78 77 75 76 79 80 80 81 84 85 85 87 87 84 82 81 76 74 82 90 92 94 96 89 83 86 89 85 83 87 88 88 89 89 86 84 81 79 76 73 67 60 54 49 44 40 38 38 38 38 38 39 40 41 44 44 42 41
71 64 69 77 76 75 78 69 56 55 57 55 56 57 53 51 54 57 59 61 60 61 63 64 69 74 74 72 75 77 78 80 81 82 82 83 84 85 86 87 87 85 81 76 72 76 87 94 94 95 95 90 85 86 86 83 82 84 84 84 83 79 74 71 68 64 62 59 57 53 48 44 43 42 40 40 40 40 41 40 39 41 41 38 35 35
67 67 72 76 75 78 78 67 59 63 62 56 56 60 59 58 57 55 54 56 58 60 62 63 67 70 69 68 72 78 80 80 80 81 83 84 85 86 87 87 86 85 83 77 74 80 89 94 94 94 94 90 86 86 85 81 80 82 81 76 73 70 68 68 65 58 52 50 49 48 45 44 44 43 41 41 41 41 41 40 40 39 36 33 34 36
72 72 71 76 85 89 78 62 59 67 67 59 53 54 56 58 58 56 54 56 57 58 62 65 65 65 68 70 74 81 84 80 78 82 85 87 87 87 85 86 88 88 84 81 81 87 91 93 93 93 92 89 88 87 84 81 82 84 80 74 71 72 74 77 74 66 57 54 54 54 50 47 45 42 40 40 40 40 40 38 36 34 33 33 35 35
74 68 67 76 84 80 66 57 59 66 67 60 53 53 55 55 55 55 54 53 55 57 61 66 67 66 68 69 69 77 85 83 81 84 88 88 86 85 85 87 89 89 86 86 89 93 94 93 92 91 89 89 91 89 81 79 83 84 80 76 74 72 70 69 69 66 61 58 57 54 48 44 41 40 39 39 38 37 37 36 33 32 33 34 34 35
Wind_Speed
4 4 1 3 5 6 7 5 5 4 4 5 4 4 3 3 2 5 4 5 2 1 1 1 3 5 5 5 5 5 3 4 5 4 5 5 5 5 6 7 7 7 6 4 7 16 20 19 20 21 21 22 23 23 23 23 22 21 21 21 20 18 17 17 16 15 14 13 13 11 10 9 8 6 6 6 7 6 5 3 1 1 2 3 3 3
5 3 4 8 8 7 6 5 5 4 4 4 5 4 1 2 3 5 3 4 4 1 3 2 3 5 5 5 5 2 5 7 9 8 7 7 6 5 7 8 7 5 4 4 7 13 18 17 18 20 21 23 24 24 24 23 22 21 21 21 21 20 18 17 16 17 16 14 12 11 10 10 9 7 6 6 6 5 4 3 1 1 2 2 3 3
5 2 9 8 5 3 3 5 5 5 5 4 3 2 1 2 3 5 4 5 5 1 4 4 6 6 6 5 6 4 6 8 8 10 10 9 9 7 8 8 7 7 6 6 7 11 17 17 18 20 21 24 25 25 25 23 23 22 22 22 22 21 20 18 18 18 17 15 12 10 10 10 8 7 6 6 6 6 5 3 2 2 3 3 4 5
2 5 7 3 6 6 3 3 6 4 3 3 3 3 2 3 1 3 4 6 4 2 1 3 4 6 6 5 3 4 5 6 4 7 7 7 10 11 10 10 10 11 10 9 8 9 13 16 19 21 22 24 23 24 26 25 24 23 24 24 24 22 21 20 20 18 17 16 13 11 10 9 7 7 7 7 8 7 6 4 3 2 2 2 3 4
6 7 5 5 5 5 2 2 5 4 1 2 3 4 3 2 3 4 4 5 4 4 3 4 5 5 5 5 3 1 2 3 4 2 5 7 8 6 5 7 10 12 12 12 11 10 12 16 20 22 23 24 24 26 27 27 25 24 25 25 24 23 23 22 21 19 18 16 15 13 12 10 8 8 8 8 8 7 6 5 3 2 2 2 3 4
6 6 3 5 2 3 4 2 3 6 2 4 3 7 7 5 5 3 2 5 5 4 4 4 2 5 4 4 5 3 4 4 3 2 7 8 6 4 5 8 9 11 11 11 12 11 12 16 18 21 23 25 26 28 28 28 26 24 24 25 25 25 25 24 22 20 18 16 16 17 17 14 12 11 10 8 8 8 7 6 4 3 4 4 4 4
4 3 3 4 4 4 3 3 5 7 5 2 4 6 6 6 6 3 2 3 2 2 3 3 3 4 6 4 5 4 5 6 5 4 6 6 5 6 7 8 8 10 10 10 11 11 11 14 16 20 26 29 29 28 28 28 26 26 25 26 27 27 27 26 23 21 19 17 17 19 19 16 15 14 11 9 8 8 7 6 5 5 6 6 6 5
3 2 5 5 5 6 3 2 5 7 7 2 4 6 8 6 5 5 5 4 2 3 3 4 3 2 4 5 5 3 5 7 7 6 6 4 5 6 7 9 9 11 12 12 12 12 11 14 18 23 28 31 29 28 29 30 29 28 27 27 29 29 29 27 25 23 21 19 19 20 19 16 14 12 10 10 9 8 7 6 6 5 5 6 6 6
2 2 3 2 5 2 3 4 7 9 5 5 4 7 6 5 5 5 5 3 1 1 3 5 1 1 4 5 5 4 3 6 7 7 7 4 3 6 8 10 11 13 14 13 14 14 13 17 24 27 27 26 27 28 30 32 31 29 29 29 30 31 30 28 26 24 22 20 20 21 20 16 14 12 10 11 10 9 7 7 7 7 5 5 6 6
3 4 4 4 3 3 6 4 7 9 3 4 6 7 5 5 5 4 5 3 3 3 4 6 1 2 4 5 5 3 1 5 6 6 7 5 4 5 7 8 9 11 12 13 15 14 15 20 23 22 20 22 24 27 29 30 30 30 30 31 31 32 31 29 27 26 24 22 21 22 21 18 15 13 12 12 11 10 8 8 8 8 7 6 6 6
4 2 2 3 3 5 4 2 3 4 3 3 5 6 6 6 5 4 3 4 4 1 6 6 2 2 3 5 4 3 2 3 5 6 6 6 8 8 8 9 9 9 9 11 12 10 12 15 17 17 18 21 23 25 27 29 30 31 32 33 33 33 32 30 28 27 25 24 23 23 22 19 16 15 15 14 13 12 11 10 10 10 9 8 7 6
7 4 2 2 2 3 4 4 1 2 3 4 4 5 3 3 4 4 4 3 3 3 6 5 1 4 2 4 4 4 4 4 5 6 7 8 9 9 9 9 8 7 7 8 7 7 8 9 13 18 20 21 23 25 29 31 32 32 33 34 34 33 33 31 30 28 26 25 25 24 24 22 18 17 18 17 16 15 13 12 11 11 11 10 9 7
5 4 4 5 2 3 5 3 2 5 5 5 4 5 3 2 3 2 3 1 2 5 4 3 1 2 4 6 4 5 6 6 5 4 5 6 7 9 9 8 7 5 4 5 6 6 7 8 10 15 19 22 26 29 31 32 33 34 34 34 35 35 35 33 31 30 28 27 27 26 26 24 21 19 19 19 17 16 15 13 13 12 12 11 10 9
4 5 5 3 2 1 5 4 1 1 1 3 4 4 2 1 2 1 3 1 3 4 2 3 2 1 4 3 3 4 6 6 5 4 4 5 5 7 8 6 6 5 3 2 5 6 7 7 8 12 16 20 24 28 31 33 34 34 33 33 35 35 35 34 32 31 30 29 29 28 27 26 23 21 21 20 19 17 16 15 14 13 12 11 10 10
0 5 3 1 2 2 2 5 5 4 3 2 4 5 4 4 3 3 3 2 3 3 2 2 1 2 2 2 4 4 5 5 5 6 5 4 6 6 6 8 8 7 5 2 2 3 4 6 10 13 15 17 18 21 25 29 32 33 33 34 35 35 35 34 33 32 31 31 30 29 29 27 25 23 22 21 20 19 17 16 15 14 13 11 9 9
1 4 6 4 2 2 1 2 4 6 3 1 2 5 2 4 4 2 3 4 3 1 1 1 2 3 3 2 4 3 5 5 5 5 3 4 6 5 8 10 9 8 6 4 1 2 3 6 10 13 16 17 16 17 20 23 26 29 31 33 35 35 35 35 35 35 33 32 32 31 30 29 27 25 24 23 22 21 19 18 17 15 14 12 10 10
1 4 6 4 2 3 2 1 2 3 1 1 2 2 3 4 6 4 1 1 3 1 3 1 2 3 1 1 4 5 5 5 5 4 3 4 6 8 9 8 8 8 7 6 3 1 2 5 8 11 14 16 15 17 19 21 22 25 26 28 30 31 32 34 36 36 35 33 33 33 32 30 29 27 26 25 24 22 21 20 19 17 15 14 13 12
2 3 6 2 2 3 3 2 5 3 3 4 2 4 2 2 4 4 1 3 4 2 4 1 2 2 0 1 1 1 2 3 5 5 4 6 7 8 7 6 7 8 8 8 7 4 2 2 6 10 11 12 13 14 16 19 22 24 25 26 28 29 31 33 35 35 35 34 34 34 33 32 31 30 29 27 25 24 22 22 21 20 19 17 15 14
2 2 7 2 1 5 5 4 3 5 3 4 3 3 2 2 1 1 2 1 0 2 3 3 3 3 3 4 4 5 5 1 4 5 5 7 7 7 6 6 7 7 8 8 8 7 6 4 0 6 10 11 12 12 14 16 20 23 24 25 26 27 28 29 29 30 32 34 35 35 34 33 32 31 30 29 27 26 25 24 23 22 21 19 18 17
2 1 5 4 2 4 5 3 1 4 5 3 3 3 2 3 3 1 2 3 2 2 2 3 4 2 5 5 5 7 6 2 1 4 6 6 6 5 5 6 6 6 7 6 7 7 7 9 9 3 6 10 11 13 13 15 19 22 21 21 23 24 25 25 26 28 30 32 34 34 34 34 33 32 32 30 29 28 28 27 25 24 23 21 20 19
2 2 3 5 5 2 1 1 3 3 1 2 3 2 1 2 2 1 1 2 3 3 2 1 2 4 5 3 5 7 6 5 4 2 4 4 5 5 5 5 5 5 6 6 6 6 6 9 15 13 5 3 7 10 12 14 17 20 20 21 22 23 24 26 27 29 30 31 32 33 34 35 35 34 33 32 31 31 30 29 28 27 25 23 22 21
1 1 2 3 5 2 4 4 3 5 3 2 2 2 2 3 2 1 2 2 1 2 3 4 3 6 5 3 4 6 5 5 5 3 3 2 3 5 6 5 5 5 6 6 6 6 6 8 13 17 15 11 6 1 5 10 14 17 19 21 23 25 27 27 28 31 31 31 33 35 36 36 36 36 35 34 33 33 32 31 30 29 27 25 24 22
2 3 1 3 4 4 7 5 1 2 3 4 2 1 2 3 4 4 3 3 0 1 2 4 1 5 5 3 4 4 5 5 5 2 1 2 2 4 5 6 5 4 4 5 5 5 6 9 13 16 19 19 18 16 12 4 4 10 15 18 21 25 27 28 30 32 31 30 32 35 37 36 36 36 35 36 36 36 35 34 32 31 29 26 24 23
1 2 2 3 4 4 6 5 4 3 4 4 1 2 3 2 3 4 4 2 2 2 2 2 2 5 5 3 1 1 2 4 4 2 1 3 4 3 4 5 5 5 6 6 6 5 7 12 15 16 17 18 19 21 21 19 15 8 6 11 16 21 25 27 29 30 29 29 31 35 35 36 37 36 36 36 38 38 37 35 34 32 30 27 24 23
1 0 1 2 4 6 6 6 5 5 3 2 2 2 1 3 5 3 1 3 0 3 4 4 4 6 5 4 4 3 4 5 5 3 1 2 4 3 3 4 5 5 6 6 6 7 9 11 11 13 15 17 19 21 22 23 23 20 15 8 8 15 19 22 25 27 28 30 34 35 35 35 36 36 37 38 39 39 39 37 35 32 29 26 24 23
1 1 2 2 2 3 2 3 3 2 2 1 2 3 1 3 5 1 1 3 1 3 3 4 3 4 5 5 5 5 4 4 6 5 3 2 3 4 4 4 5 5 5 6 6 7 7 7 8 11 15 17 19 21 22 23 23 23 21 17 11 8 11 15 20 23 26 29 33 33 33 34 35 36 38 39 39 39 39 37 35 32 29 27 25 23
2 1 3 5 6 6 6 6 5 2 1 2 2 3 3 0 3 4 3 3 4 3 2 5 3 2 5 6 6 6 5 5 5 4 4 4 3 3 3 4 4 4 4 5 5 5 6 6 7 9 13 15 17 19 21 22 24 24 23 22 19 16 12 10 14 19 23 27 29 30 30 31 32 33 34 35 36 37 38 38 37 33 30 28 25 24
4 1 2 4 5 6 6 6 4 2 3 4 3 4 6 3 2 5 4 4 4 3 4 7 6 4 7 8 7 8 6 5 5 5 5 4 3 3 3 4 4 4 4 4 4 4 5 5 5 7 11 14 17 18 20 21 22 23 24 23 23 21 18 15 12 14 19 23 25 27 26 26 27 28 29 30 31 32 34 35 34 33 31 29 26 25
5 2 2 3 3 5 4 5 3 2 3 4 4 6 7 4 5 6 7 6 6 5 8 7 8 8 8 6 8 9 6 5 6 5 4 3 1 3 3 3 4 5 5 5 5 4 4 4 4 5 9 12 15 18 20 21 22 23 24 24 24 23 22 19 16 13 14 18 22 24 25 25 26 25 26 27 29 30 30 29 28 29 28 27 25 24
3 2 2 3 2 5 4 5 3 3 3 3 5 8 6 6 8 8 7 6 7 9 9 5 7 9 7 6 9 7 3 3 5 4 2 1 1 2 2 3 4 5 5 5 5 5 4 3 4 5 8 11 13 16 18 19 21 22 22 24 24 24 23 21 20 18 16 16 19 22 23 24 24 24 25 27 29 31 30 28 28 27 26 25 25 24
1 2 1 3 1 5 5 4 3 5 5 5 7 7 5 5 6 6 6 5 5 7 9 5 6 9 6 6 9 5 1 1 2 2 3 1 0 1 2 2 2 3 4 5 5 5 5 5 5 6 9 11 13 14 15 18 20 21 22 24 24 24 23 21 21 21 19 18 19 20 22 23 23 23 25 26 28 29 28 27 28 29 29 28 26 24
1 1 1 3 1 5 4 5 6 3 3 7 8 7 7 7 6 6 5 5 6 6 7 6 5 7 6 5 6 5 3 2 4 4 4 2 0 3 3 1 2 3 4 5 5 5 6 6 6 7 9 12 14 14 16 18 19 21 23 24 24 24 23 21 21 21 22 21 20 19 20 22 23 24 25 25 26 27 27 26 28 30 31 30 27 25
3 2 1 2 2 5 4 4 3 3 5 7 7 8 11 11 9 7 4 4 7 7 6 6 6 5 4 2 4 4 2 3 4 4 3 1 2 2 1 1 4 5 5 5 5 5 5 6 7 9 12 15 16 17 18 19 19 21 23 23 23 23 22 22 21 21 22 23 22 21 20 21 23 24 25 24 24 25 25 26 29 31 31 30 28 26
2 3 3 3 2 5 5 2 2 2 5 7 5 6 10 10 10 10 8 7 7 5 4 4 3 3 2 3 6 5 3 2 2 3 3 3 4 4 3 3 4 5 5 5 6 5 6 7 9 12 15 17 20 21 22 21 21 22 22 22 22 21 21 21 21 22 23 23 24 22 20 20 22 24 24 23 23 23 25 28 31 32 30 29 27 25
2 3 2 1 2 3 2 3 2 4 7 5 4 3 3 3 5 8 8 7 5 4 5 4 4 4 4 5 5 4 3 3 3 4 5 4 5 6 3 3 4 5 5 6 6 6 7 10 12 14 17 20 22 24 25 25 24 24 23 22 21 21 21 21 21 21 21 22 23 23 21 20 22 23 23 22 22 24 27 29 31 31 30 28 26 23
4 3 2 1 1 1 1 3 3 6 5 5 6 4 1 2 2 1 4 6 4 2 3 4 5 5 4 4 4 2 3 4 4 4 6 5 5 5 3 3 5 4 5 6 7 8 11 13 14 16 20 22 24 25 25 26 26 26 24 22 21 21 21 21 21 21 21 22 22 23 22 21 22 22 22 22 23 26 28 31 32 31 30 27 23 21
5 3 2 1 2 2 2 2 3 4 6 6 4 2 1 1 1 1 2 4 5 2 2 1 4 4 4 4 4 4 5 5 5 5 5 4 5 6 4 5 6 5 7 10 11 13 15 15 16 18 21 23 25 25 26 27 26 26 24 23 22 22 21 20 21 22 23 23 23 23 22 22 22 23 23 24 25 28 31 33 33 31 29 27 24 23
4 3 3 3 2 2 2 3 3 3 4 5 4 4 2 3 3 2 2 1 3 2 1 0 3 4 5 5 4 4 5 4 3 5 6 5 5 6 6 7 8 8 10 13 15 15 16 16 17 20 22 23 24 24 24 25 25 24 23 22 22 23 21 19 21 24 25 25 24 23 23 22 23 24 24 25 26 29 32 34 34 32 29 27 26 24
3 1 3 3 1 1 3 2 2 2 4 5 5 6 4 3 3 2 2 1 3 3 2 0 4 5 4 4 2 2 3 1 4 6 6 5 5 5 6 7 9 11 13 14 15 15 15 17 18 21 22 22 23 24 23 24 24 23 22 22 22 23 22 22 25 28 28 27 26 24 22 22 23 25 25 25 25 25 24 25 28 30 28 27 26 23
4 4 3 3 2 2 3 3 3 3 4 3 3 6 5 2 5 4 1 4 5 5 3 2 2 5 4 3 2 3 3 4 5 5 5 4 5 6 7 7 9 11 13 15 15 15 16 18 19 21 22 23 24 23 22 24 24 22 22 23 23 23 24 26 29 30 30 29 26 21 20 21 23 25 26 27 28 26 23 21 23 24 24 23 22 19
2 2 1 2 2 2 3 3 3 3 3 3 4 6 4 1 4 2 3 5 4 6 4 3 3 5 4 3 3 4 5 6 5 6 7 5 5 7 7 9 11 12 14 16 16 16 17 19 19 21 22 24 24 22 22 23 23 22 24 24 23 25 28 30 31 31 29 25 20 17 18 20 23 26 28 30 31 32 30 26 24 22 19 18 17 15
1 1 2 1 1 2 3 2 2 4 3 3 3 4 2 1 2 3 4 4 4 4 4 3 4 5 4 4 4 5 6 6 5 7 8 7 7 7 8 10 11 11 14 15 16 17 18 19 20 21 22 23 23 21 21 21 22 23 25 25 25 28 31 30 29 28 23 18 16 18 20 23 26 30 32 32 32 31 29 26 23 19 17 16 15 14
2 1 2 2 2 1 1 1 1 3 3 2 1 3 2 1 2 4 4 3 3 4 4 3 4 4 4 4 5 5 6 7 7 7 7 8 8 7 9 10 10 11 13 14 15 17 18 18 19 20 22 23 22 20 20 20 22 24 24 25 28 29 28 27 24 20 16 17 20 23 27 31 34 36 35 33 30 28 26 24 22 18 17 16 15 13
2 2 1 2 1 1 1 2 3 4 4 3 2 2 2 2 4 4 4 4 4 3 3 3 4 5 4 4 6 6 6 7 8 8 8 8 8 7 8 10 12 14 15 15 17 19 18 18 19 20 23 24 22 19 18 19 21 23 23 25 26 25 24 21 16 13 19 23 27 30 34 37 37 36 34 32 30 28 25 23 21 19 17 14 12 10
3 3 2 2 2 2 4 5 5 5 4 2 3 4 4 5 7 5 5 5 4 3 2 3 5 7 5 5 6 6 6 7 9 8 9 9 9 8 9 10 13 15 16 18 20 20 20 19 20 21 23 24 21 17 16 16 17 18 19 20 20 18 16 13 13 19 24 27 30 33 35 37 36 35 33 31 29 28 26 23 21 19 16 12 9 7
4 1 2 2 2 3 3 5 4 5 6 5 4 5 5 6 7 6 4 5 5 5 4 4 6 7 7 6 6 6 7 8 8 9 9 9 9 10 10 11 13 15 16 17 19 21 21 20 20 20 21 22 19 14 12 12 11 11 11 10 10 9 8 11 17 22 24 27 30 32 34 36 35 33 31 29 27 25 23 20 18 16 14 11 8 5
3 0 1 1 2 3 3 4 3 4 7 6 5 6 7 7 6 5 4 5 6 6 6 6 7 7 7 7 7 8 9 9 8 9 9 8 9 9 9 10 13 15 16 17 19 21 20 18 19 19 19 20 17 11 8 8 5 2 2 4 4 5 11 16 19 20 21 23 27 30 33 34 32 30 28 26 24 21 19 17 16 14 12 10 7 5
2 1 1 2 3 3 4 7 8 8 9 8 6 6 7 7 7 6 5 5 6 6 7 7 7 6 6 7 8 9 10 9 9 9 8 8 8 8 8 10 14 16 18 19 21 21 18 17 18 18 18 19 15 8 5 5 3 5 7 10 12 16 22 24 25 24 23 23 25 28 31 32 30 29 26 23 21 19 17 16 14 13 11 9 7 6
2 1 2 2 3 4 6 8 8 7 8 8 7 6 5 6 7 7 7 7 7 7 8 9 9 8 8 9 9 8 9 10 10 9 9 8 8 7 9 13 15 16 18 20 22 21 18 17 18 18 19 18 13 6 6 6 7 9 12 16 19 25 29 28 27 28 28 27 27 27 29 30 29 27 25 23 21 19 17 15 14 13 11 10 7 5
1 3 3 1 3 4 6 7 6 4 6 9 9 8 6 6 7 8 8 8 8 9 9 9 10 10 9 10 10 8 8 11 11 9 9 8 8 10 13 14 15 16 18 21 22 21 20 19 19 19 19 17 11 9 11 10 10 11 15 20 23 25 26 23 21 23 25 26 25 25 26 27 26 24 23 21 20 19 18 16 14 13 11 10 7 6
3 5 4 3 4 6 8 9 7 4 6 9 10 10 7 5 6 9 10 10 10 10 9 8 9 10 9 11 12 10 9 10 11 10 8 8 12 15 15 15 14 15 18 21 20 19 20 21 20 18 17 15 10 13 14 12 12 15 18 20 20 18 17 17 18 20 21 21 21 22 23 24 24 22 20 19 19 19 19 17 14 12 11 10 8 8
Wind_Direction
67 68 21 223 232 242 230 194 175 182 142 129 121 119 154 166 279 276 266 288 302 87 323 216 235 267 265 227 213 237 222 204 227 207 199 199 191 200 203 212 217 220 226 216 201 201 204 203 196 193 191 187 184 185 186 185 183 181 178 176 172 172 176 177 175 171 167 162 157 155 156 151 143 146 151 144 141 140 141 136 117 32 360 340 333 330
54 71 245 228 220 227 216 182 144 117 99 98 129 131 181 190 237 265 253 307 340 61 273 331 353 296 259 243 254 222 175 210 219 203 205 205 201 211 211 218 221 220 224 198 194 202 206 208 202 198 195 190 188 187 188 188 185 183 182 180 174 175 180 181 180 175 170 167 166 165 162 157 153 155 162 161 154 146 145 142 121 37 20 13 30 43
21 281 253 243 204 147 104 135 125 111 101 82 127 137 310 253 273 290 290 328 355 21 282 347 9 299 276 268 254 210 191 221 221 203 202 196 194 206 209 212 211 214 221 203 196 200 204 208 204 202 200 196 194 191 189 190 187 185 186 183 178 178 179 177 177 175 171 168 167 166 162 163 163 159 159 157 147 139 141 138 112 75 57 53 69 76
330 252 240 215 150 127 75 96 112 106 96 88 122 139 264 274 325 295 299 325 347 32 303 18 11 299 302 321 268 206 219 257 264 223 221 210 203 206 205 205 204 206 212 209 204 196 196 202 204 205 203 200 197 194 191 189 188 189 190 186 182 180 179 175 173 174 174 171 168 166 163 165 163 154 149 141 132 129 131 132 118 92 77 70 82 94
251 243 190 122 129 147 125 97 120 135 251 299 162 160 212 238 194 215 280 327 348 12 32 50 7 314 330 341 302 243 249 298 337 279 249 249 232 223 214 210 210 210 211 208 204 193 189 197 201 202 203 202 200 197 194 191 190 193 193 188 186 184 180 178 175 176 178 176 174 170 166 166 160 155 155 151 145 142 139 136 128 108 120 134 116 110
259 259 157 114 93 124 148 190 183 160 175 305 239 200 192 173 178 209 340 20 29 353 348 38 360 293 323 318 268 306 344 320 333 270 238 248 241 221 220 218 216 219 219 214 209 201 195 195 193 195 201 203 203 201 197 194 195 198 195 191 190 188 184 181 180 183 185 184 184 177 171 170 168 170 173 167 156 151 148 142 135 116 105 115 124 114
258 306 60 103 108 102 130 240 233 165 128 302 246 199 165 126 129 149 114 79 74 280 310 49 144 254 317 314 267 310 332 302 295 262 244 255 243 217 223 225 219 220 223 222 218 210 199 189 183 191 201 204 204 203 198 196 198 199 196 193 191 190 187 184 184 189 193 193 192 186 180 179 179 179 177 169 159 153 151 147 145 133 111 108 114 112
231 316 25 66 87 88 114 258 233 152 118 235 231 145 130 126 145 164 148 138 200 246 324 17 112 192 297 278 273 328 338 316 314 295 270 251 234 231 236 234 225 222 220 217 217 211 199 189 188 197 202 203 203 200 197 197 199 199 197 193 191 191 190 188 188 193 199 200 198 193 189 188 188 185 174 169 169 164 162 159 157 154 138 128 121 115
218 254 310 82 75 75 203 219 194 153 138 239 196 122 128 140 151 150 125 121 359 19 317 321 49 166 272 274 305 2 358 310 306 297 290 280 234 234 240 239 231 228 223 217 216 210 199 195 198 201 202 201 200 198 197 198 199 199 197 193 192 192 192 192 192 196 202 205 204 199 197 196 194 190 179 176 178 176 176 173 169 167 160 148 137 127
237 230 226 136 104 229 230 219 179 158 179 221 132 93 71 75 83 89 102 108 49 59 249 272 273 197 268 288 305 341 345 281 280 277 283 308 315 288 275 264 245 234 228 221 217 210 203 202 202 200 197 196 198 198 198 199 199 199 196 194 194 194 195 196 196 199 203 208 209 206 204 203 198 193 188 185 186 187 189 186 176 172 165 152 141 133
290 280 200 145 180 204 178 129 166 147 135 134 95 64 48 42 40 46 61 86 69 335 253 258 237 180 271 287 259 245 253 277 286 293 306 328 330 316 304 292 270 244 229 221 219 210 201 200 195 191 190 191 194 196 197 199 201 200 197 196 197 198 198 199 201 202 205 210 214 213 211 209 205 198 195 194 193 194 197 193 183 176 171 161 149 138
336 337 243 262 243 163 105 78 52 47 84 104 78 65 62 358 16 31 357 46 94 262 266 271 241 138 196 268 267 278 298 304 279 279 308 322 321 316 303 294 288 262 234 219 211 192 180 179 181 184 185 184 187 191 196 200 201 201 200 198 200 202 201 202 204 206 209 213 216 218 216 214 212 206 203 202 201 199 199 195 189 184 178 170 163 155
326 267 265 302 292 139 110 89 14 7 38 78 84 75 72 332 12 16 308 339 200 245 257 272 279 139 220 251 268 300 319 324 290 262 293 305 310 316 304 297 309 302 254 207 183 174 176 176 178 181 180 179 184 190 195 198 200 202 202 200 202 204 204 205 206 208 212 215 217 219 219 218 217 215 212 211 209 207 205 200 197 194 188 182 178 173
321 302 322 330 298 117 123 139 194 322 67 124 144 126 122 119 64 300 269 274 260 262 261 263 272 279 273 265 252 280 307 315 323 338 318 295 293 301 307 328 353 347 332 182 175 180 184 175 171 182 186 186 189 192 194 197 199 201 202 202 204 206 206 207 209 211 214 215 216 218 221 221 221 220 218 216 216 215 211 209 208 206 201 198 192 183
304 303 298 196 276 334 129 168 168 149 139 175 162 135 144 159 155 232 227 194 243 267 298 286 240 185 208 261 260 270 302 316 342 346 323 308 297 294 332 11 20 7 355 355 173 177 179 169 167 178 189 195 198 197 197 198 199 201 202 204 206 207 208 210 211 213 215 215 215 217 221 224 225 225 222 221 222 221 218 216 216 215 213 212 206 194
129 262 261 265 290 13 23 201 143 111 99 245 141 112 151 184 154 183 192 167 183 207 281 255 232 217 204 276 301 330 344 339 343 332 339 353 333 352 23 20 18 13 2 357 15 139 160 171 175 180 187 194 200 202 203 203 203 205 205 206 208 209 209 212 213 215 217 217 216 217 220 225 228 228 225 224 224 224 224 223 223 222 220 220 217 207
83 274 281 315 1 30 358 290 83 91 167 185 127 156 215 171 124 118 201 54 80 152 262 243 237 284 337 349 346 13 350 328 333 334 13 23 10 36 37 14 11 15 11 12 18 64 144 160 174 183 189 193 196 199 203 206 207 210 212 212 214 213 213 215 216 216 218 219 220 221 222 225 228 229 228 228 228 228 227 227 229 228 226 225 222 217
146 269 295 4 84 331 338 32 36 43 128 125 170 212 201 104 93 107 155 8 44 202 271 304 211 246 115 201 295 359 291 323 349 345 16 32 33 43 34 11 11 9 9 18 27 33 37 137 172 182 190 197 200 200 203 205 210 215 217 218 219 219 217 218 219 219 220 221 223 225 226 226 228 230 232 232 233 233 232 231 230 229 228 227 225 222
120 266 297 319 193 298 347 46 10 346 59 120 173 191 115 122 220 55 126 142 127 228 282 314 279 235 199 216 206 189 199 45 3 349 24 36 31 33 23 16 16 15 17 19 21 26 24 20 183 196 195 196 199 204 206 208 214 218 220 221 223 225 224 224 225 225 225 225 226 229 230 231 231 233 234 235 236 236 236 235 233 230 230 228 226 225
72 113 283 299 285 300 357 41 263 311 347 20 42 22 36 132 160 153 134 163 182 215 259 306 315 265 228 224 176 175 196 200 342 5 37 31 16 14 8 11 20 29 33 28 22 24 21 18 15 357 214 206 202 204 206 209 216 220 223 224 226 230 231 230 231 232 232 230 230 231 232 233 235 235 236 237 238 239 240 239 237 234 234 231 227 226
42 88 245 294 329 327 326 296 187 182 317 6 22 346 339 78 117 167 97 117 139 161 190 229 288 266 251 227 167 167 192 208 200 111 64 24 6 1 349 357 14 32 37 32 32 33 28 28 31 33 21 255 217 210 210 211 217 221 223 224 225 229 231 231 233 236 237 235 233 234 234 235 236 236 237 238 239 241 243 242 241 239 237 235 230 226
32 115 193 289 335 313 243 248 189 172 177 154 171 214 179 138 132 153 291 310 108 147 171 165 233 267 260 221 192 178 186 214 212 151 91 38 7 353 342 344 357 22 31 20 18 26 29 37 45 49 50 48 53 76 219 222 224 224 224 225 226 227 228 229 232 234 236 236 234 235 236 236 237 237 237 237 239 241 242 243 243 241 239 236 232 226
136 103 104 270 272 244 252 271 234 172 161 132 142 156 138 139 126 140 217 251 172 145 152 134 193 269 261 233 213 201 207 233 237 212 70 9 349 339 336 336 346 10 18 14 19 22 26 38 48 51 50 49 48 46 42 27 254 239 236 232 229 228 229 230 232 234 233 234 237 238 237 236 237 238 238 237 237 240 242 243 242 241 240 237 232 226
97 76 43 297 296 303 302 324 11 48 94 100 33 50 109 135 127 145 178 174 167 186 141 124 253 268 276 280 243 222 270 287 279 251 269 336 336 341 347 346 352 1 4 12 22 23 29 37 39 39 39 38 37 36 36 35 31 11 304 259 242 237 235 232 233 234 232 233 241 243 239 237 237 237 238 239 238 239 241 242 242 240 239 236 230 224
296 43 83 20 334 332 337 348 352 353 35 99 298 331 68 89 89 98 93 84 142 217 157 159 237 251 271 316 343 351 347 324 303 292 242 289 315 333 358 4 2 1 6 14 18 22 30 31 29 30 30 30 29 26 25 26 27 27 21 356 281 257 249 242 237 235 233 235 240 240 238 237 237 235 236 239 239 239 240 240 240 238 236 232 227 222
196 183 140 135 231 249 270 281 265 283 319 335 312 310 338 91 100 120 68 89 196 244 170 167 225 267 285 313 327 321 324 317 310 320 313 268 281 305 335 2 8 8 10 16 20 23 25 24 25 26 26 25 24 21 18 16 15 16 18 19 8 322 282 264 251 242 237 238 241 239 237 238 237 235 236 238 238 238 238 237 237 234 231 227 223 218
118 181 183 161 185 201 200 224 225 186 214 273 286 271 263 131 106 109 103 137 190 202 208 209 199 294 287 278 288 289 296 311 308 309 307 294 293 309 326 344 354 358 1 11 19 18 18 20 19 20 22 22 19 16 14 11 9 6 4 6 9 5 349 313 275 256 247 243 243 244 243 241 239 238 238 238 238 238 237 235 233 230 226 223 219 215
94 334 247 166 200 218 206 225 228 159 207 237 233 244 257 255 126 129 166 202 169 132 265 242 193 207 252 248 258 268 279 300 284 266 274 279 293 330 350 352 357 2 1 9 15 13 17 15 3 7 15 16 12 9 7 4 2 0 356 355 356 357 356 349 321 283 265 255 249 248 249 248 246 244 241 241 241 240 238 235 232 227 221 215 211 211
113 247 239 171 253 268 246 249 244 182 237 246 225 238 249 223 185 190 209 200 156 179 248 231 183 208 237 236 246 248 240 257 266 263 260 255 313 6 16 16 12 6 1 5 2 356 358 352 345 357 5 7 5 1 358 355 354 353 350 348 348 347 347 346 340 323 295 274 262 257 255 253 251 248 245 245 244 243 240 236 232 225 216 209 206 206
123 249 227 160 297 303 278 260 236 199 251 280 247 242 242 217 205 212 225 207 187 219 245 217 195 227 232 220 236 233 185 224 270 303 293 238 359 11 39 42 16 355 345 345 337 324 319 316 323 345 356 1 359 354 349 345 344 343 339 338 339 339 340 338 334 330 317 297 283 273 264 256 251 248 247 247 247 245 239 231 224 217 210 206 204 201
90 262 227 114 339 298 285 279 242 192 204 244 256 252 247 243 233 229 233 216 203 243 256 236 233 252 248 227 242 267 349 204 227 279 267 255 169 148 125 79 356 323 318 319 317 313 314 318 333 350 353 351 348 345 341 336 334 331 329 328 329 330 332 330 326 324 318 308 300 291 277 264 254 250 250 248 246 243 235 224 216 210 204 200 197 196
87 252 355 70 318 269 258 271 273 276 264 257 258 251 236 234 230 221 215 196 190 224 252 254 250 256 255 234 241 275 299 190 188 218 244 289 312 149 125 67 321 307 308 309 313 318 322 326 334 340 338 338 338 337 333 330 327 323 321 322 323 324 323 321 319 318 315 311 307 299 286 271 259 252 251 249 244 239 230 220 211 203 196 191 190 191
154 182 186 124 242 263 250 244 264 351 324 271 248 224 218 220 225 231 243 223 204 201 221 237 237 241 250 219 213 239 236 180 204 227 225 238 234 204 175 310 311 311 307 304 307 307 306 308 316 323 326 329 330 329 329 326 320 317 318 318 319 319 317 315 314 312 311 310 308 302 291 277 262 253 250 247 241 231 220 211 203 196 190 186 188 189
157 183 211 170 201 264 279 309 27 353 273 254 240 213 212 219 224 229 239 240 227 213 215 235 258 273 258 205 199 208 201 191 236 258 245 214 196 206 233 262 285 297 300 302 301 296 293 300 310 318 323 325 326 326 325 323 319 317 317 317 315 315 312 309 306 306 307 308 307 304 295 279 264 254 248 242 232 220 211 204 197 191 187 185 186 185
166 186 220 168 170 243 289 35 16 265 248 256 296 277 222 204 203 218 244 266 267 267 270 286 298 273 238 221 209 201 219 268 298 280 256 230 187 186 220 298 303 300 300 302 301 298 302 308 313 317 320 322 323 323 322 322 321 319 317 318 315 312 309 304 299 298 300 302 304 303 295 279 263 250 242 232 220 210 202 197 191 186 184 183 182 181
174 170 186 167 163 204 120 122 191 245 270 304 322 324 3 42 67 207 281 314 326 278 254 286 290 272 263 261 253 260 293 309 321 286 251 235 206 192 206 278 281 276 282 286 287 291 298 304 309 312 314 316 317 317 317 318 319 317 315 316 315 311 308 303 299 296 295 295 297 298 292 276 258 243 230 219 209 200 193 189 186 183 180 177 175 177
165 146 155 210 206 163 168 210 242 292 310 314 323 343 18 18 28 156 227 297 309 264 192 336 331 318 311 305 311 334 351 11 360 315 282 255 234 228 238 255 254 255 272 282 288 292 297 303 307 309 310 311 311 312 314 316 316 313 311 313 313 310 306 301 298 297 295 291 290 292 288 271 250 233 219 208 200 192 188 185 182 178 175 172 171 172
150 159 167 189 228 118 125 284 309 324 288 268 265 283 268 201 213 180 143 250 301 292 203 354 350 323 298 302 326 354 25 35 344 294 287 280 260 252 261 270 270 273 279 287 292 295 300 306 310 312 311 306 305 308 312 314 314 310 306 307 308 306 302 298 296 294 291 288 287 289 285 266 242 225 211 199 192 188 184 181 178 174 171 170 167 164
64 47 118 133 228 102 126 225 241 214 239 246 257 279 279 182 175 107 81 229 276 299 265 302 346 322 285 276 294 86 90 41 269 264 266 268 266 262 265 274 280 281 283 288 291 292 299 306 310 312 310 304 302 307 311 311 310 306 300 299 301 299 296 292 292 291 288 287 287 286 276 256 233 214 199 186 180 176 170 166 165 163 162 161 157 153
29 20 68 120 225 206 156 205 238 230 238 237 247 274 284 148 121 92 4 258 269 290 263 205 301 303 279 254 199 145 177 223 241 263 270 251 244 246 241 252 270 278 283 289 292 294 300 305 306 307 306 302 302 306 308 307 306 300 293 293 293 290 287 288 291 291 289 287 285 276 258 237 215 200 189 180 173 163 149 139 140 143 144 144 145 145
6 355 35 143 200 207 187 218 267 264 245 239 252 267 273 149 118 135 221 232 263 296 283 227 252 273 262 236 187 185 226 233 237 277 295 298 289 274 261 265 275 281 286 290 295 300 302 302 303 302 300 301 303 303 303 303 299 291 287 286 283 281 285 289 291 290 287 282 270 245 223 207 193 182 173 165 156 148 142 138 135 135 135 136 139 141
354 336 337 79 159 201 183 190 286 285 248 214 244 275 294 105 171 227 229 224 245 281 292 277 266 268 258 242 220 223 252 265 272 283 291 294 293 289 287 288 287 286 289 291 296 301 301 300 301 298 297 301 303 299 298 298 291 283 280 276 274 279 286 291 292 287 276 256 226 201 186 175 166 157 149 142 136 133 135 136 137 139 141 142 144 144
176 209 297 254 209 225 139 140 285 273 241 198 240 317 8 102 232 267 284 267 233 247 279 281 268 265 259 254 253 252 265 279 282 280 280 279 279 280 285 290 288 286 288 289 293 300 301 297 296 295 295 300 301 297 298 296 285 277 273 271 275 283 287 290 290 276 241 205 183 170 159 151 146 141 137 135 132 129 130 133 135 141 146 147 148 150
205 190 247 247 216 140 163 193 210 221 214 180 171 215 202 216 257 278 286 276 255 249 269 275 273 269 255 253 271 276 279 285 286 287 289 288 288 286 284 286 288 289 291 291 295 303 302 295 294 296 298 301 301 299 300 295 281 274 272 275 281 286 286 284 271 226 190 172 160 151 144 140 137 134 133 132 130 128 132 139 143 147 149 148 148 150
232 193 185 222 234 202 202 228 251 260 263 234 197 210 232 269 284 272 244 252 263 255 252 278 288 285 275 266 272 277 280 283 287 291 293 292 290 287 285 286 285 287 291 294 298 304 302 296 296 297 298 302 304 304 301 292 278 275 279 285 288 286 277 257 210 176 162 154 148 143 138 135 133 132 131 131 131 133 141 148 149 150 153 154 152 150
258 219 157 196 273 290 260 260 270 275 280 275 245 238 252 274 284 277 248 248 258 258 262 271 271 275 281 282 280 277 274 276 282 285 286 286 286 285 285 287 287 287 287 289 295 300 300 299 299 297 297 302 307 307 298 286 277 278 288 297 296 276 236 186 161 151 145 142 140 137 134 132 132 133 134 136 137 139 143 146 145 146 154 160 157 147
281 321 126 213 291 311 292 288 290 271 271 277 278 279 279 272 268 264 248 246 256 266 272 271 266 268 273 274 273 271 271 272 277 281 284 284 284 284 284 285 285 283 281 283 290 295 296 297 297 296 295 298 303 303 287 274 269 270 360 35 63 131 141 132 126 124 126 130 132 132 132 132 133 135 136 138 140 140 137 137 137 138 144 148 140 119
268 21 18 233 240 246 257 273 283 281 280 282 278 276 284 286 281 273 266 266 273 278 277 274 272 272 271 271 271 270 274 277 273 274 278 279 278 279 279 276 275 275 278 284 289 291 292 290 289 289 288 289 292 286 254 234 186 128 98 83 94 112 114 111 109 109 110 116 121 125 127 128 130 133 133 134 134 133 134 135 134 131 130 126 112 94
180 278 273 238 257 281 275 274 284 296 295 289 279 264 256 263 272 280 286 289 289 287 284 281 275 266 263 270 273 271 275 276 270 267 270 271 270 270 267 266 265 267 274 281 285 287 288 286 285 284 284 284 280 247 199 178 156 135 111 98 101 107 107 107 110 113 116 119 121 123 125 128 131 133 136 136 135 133 133 133 131 128 123 113 99 81
154 256 256 250 281 279 269 271 283 299 291 284 287 284 267 256 265 277 282 282 278 273 272 273 275 273 267 265 264 261 264 267 266 264 264 262 263 262 260 260 261 265 271 277 281 285 285 283 284 283 281 281 266 208 176 158 153 147 126 115 114 115 117 119 124 130 134 134 134 137 139 140 141 141 141 140 137 134 131 128 125 124 119 111 104 91
196 231 214 209 246 253 261 272 274 266 267 274 279 283 278 267 268 273 275 276 274 270 262 258 267 276 277 271 263 252 246 255 261 263 261 262 264 262 259 257 257 263 272 275 278 282 283 284 285 282 278 276 245 189 168 152 151 151 140 135 136 138 142 146 151 154 154 150 150 154 154 152 150 146 140 136 133 133 133 131 129 127 123 120 113 95